Terminal Aerodrome Forecast
Issued by NWS

Home | Current Version | Previous Version | Graphics & Text | Print | Product List | Glossary Off
Versions: 1 2 3 4 5 6 7 8 9 10 11 12 13 14 15 16 17 18 19 20 21 22 23 24 25 26

000
FTUS42 KMHX 010800 AAA
TAFOAJ
TAF AMD
KOAJ 010854Z 0109/0206 00000KT 3SM BR SCT004
      TEMPO 0109/0112 1/2SM FG OVC002
     FM011300 02006KT P6SM FEW025
     FM020000 00000KT P6SM SKC
      AMD LTD TO CLD VIS AND WIND=

USA.gov is the U.S. government's official web portal to all federal, state and local government web resources and services.